Location: Tel Aviv
(32.0670°N, 34.7670°E)
Time: 01:32:21
(UTC+03:00)

AO-7 - Pass Details

Date: 20 September 2024
Orbit: 1440 x 1458 km, 102.0° (Epoch: 10 October)

Event Time Altitude Azimuth Distance (km) Brightness Sun altitude
Rises 05:53:05 0° 21° (NNE) 4,566 ? -8.2°
Reaches altitude 10° 05:55:57 10° 25° (NNE) 3,583 ? -7.6°
Maximum altitude 06:04:12 61° 104° (ESE) 1,622 ? -5.9°
Drops below altitude 10° 06:12:22 10° 183° (S) 3,556 ? -4.2°
Sets 06:15:11 0° 187° (S) 4,529 ? -3.6°
